Regional Weather Roundup
Issued by NWS

Home | Current Version | Previous Version | Text Only | Print | Product List | Glossary Off
Versions: 1 2 3 4 5 6 7 8 9 10 11 12 13 14 15 16 17 18 19 20 21 22 23 24 25 26 27 28 29 30 31 32 33 34 35 36 37 38 39 40 41 42 43 44 45 46 47 48 49 50

000
ASUS44 KMEG 100300
RWRTN
TENNESSEE HOURLY STATE WEATHER ROUNDUP
NATIONAL WEATHER SERVICE MEMPHIS TN
900 PM CST FRI DEC 09 2016

TNZ002-004-019-021-049-052-054-088>092-100400-
WEST TENNESSEE

CITY           SKY/WX    TMP DP  RH WIND       PRES   REMARKS
MEMPHIS INTL   CLEAR     30  20  66 CALM      30.59R
NWS MEMPHIS      N/A     26 N/A N/A MISG        N/A
JACKSON        CLEAR     24  19  81 CALM      30.58S
DYERSBURG      CLEAR     25  21  86 CALM      30.59S
UNION CITY     CLEAR     21  16  79 CALM      30.58R
PARIS          CLEAR     18  12  79 CALM      30.57S
LEXINGTON      CLEAR     25  18  74 CALM      30.56S
$$

TNZ008-025-027-028-033-062-065-066-100400-
NORTH MIDDLE TENNESSEE

CITY           SKY/WX    TMP DP  RH WIND       PRES   REMARKS
NASHVILLE      CLEAR     27  17  66 N3        30.57R
CLARKSVILLE    CLEAR     23  15  71 NE3       30.57R
SMYRNA         CLEAR     24  19  81 CALM      30.57S
CROSSVILLE     CLEAR     22  14  71 N3        30.47S
$$

TNZ061-075-076-078-094-096-097-100400-
SOUTH MIDDLE TENNESSEE

CITY           SKY/WX    TMP DP  RH WIND       PRES   REMARKS
TULLAHOMA      CLEAR     23  16  74 CALM      30.51F
WINCHESTER     CLEAR     21  18  86 CALM      30.52S
MCMINNVILLE    CLEAR     25  16  68 CALM        N/A
SHELBYVILLE    CLEAR     23  19  86 N3        30.55R
$$

TNZ017-018-042-046-047-100400-
NORTHEAST TENNESSEE

CITY           SKY/WX    TMP DP  RH WIND       PRES   REMARKS
TRI CITIES     CLEAR     22  14  71 N3        30.47R
$$

TNZ012-013-036-069-073-074-100400-
CENTRAL EAST TENNESSEE

CITY           SKY/WX    TMP DP  RH WIND       PRES   REMARKS
KNOXVILLE      CLEAR     27  16  63 N6        30.50F WCI  20
OAK RIDGE      CLEAR     28  16  60 CALM      30.53R
GATLINBURG     CLEAR     21  16  79 CALM      30.51R
$$

TNZ083-085-099-100400-
SOUTHEAST TENNESSEE

CITY           SKY/WX    TMP DP  RH WIND       PRES   REMARKS
CHATTANOOGA    CLEAR     31  16  54 N5        30.52R WCI  26
$$

SKY/WX REPORTED AS FAIR MEANS FEW OR NO CLOUDS BELOW
12 THOUSAND FEET.




USA.gov is the U.S. government's official web portal to all federal, state and local government web resources and services.